Location: Angwan Shehu
(11.2514°N, 7.4613°E)
Time: 01:30:58
(UTC+00:00)

Tiros 1 - Pass Details

Date: 26 April 2021
Orbit: 630 x 664 km, 48.4° (Epoch: 06 May)

Event Time Altitude Azimuth Distance (km) Brightness Sun altitude
Rises 14:10:00 0° 325° (NW) 2,902 10.9 50.4°
Reaches altitude 10° 14:12:20 10° 329° (NNW) 1,996 10.2 49.8°
Maximum altitude 14:16:52 60° 50° (NE) 721 7.8 48.7°
Drops below altitude 10° 14:21:25 10° 129° (SE) 2,007 9.4 47.6°
Sets 14:23:46 0° 133° (SE) 2,920 10.2 47.1°
